Погода в Андижане

Узбекистан     40°47′00″N   72°21′02″E
темп.,
°C
ветер,
м/с
пор.,
м/с
влажн.,
%
обл.,
%
осадки,
мм/ч
давл.,
гПа
погр.,
м
3 марта, ср
ср323:00+11всв4842100 0.0 1025308
02:00+10всв2555100 0.0 1024251
05:00+9с2364100 0.1 1024137
08:00+8ююв1275100 1.2 1024269
11:00+8всв1273100 2.3 1022468
14:00+9всв3372100 0.3 1020450
17:00+9всв4671100 0.4 1021470
20:00+8всв4773100 0.1 1024278
4 марта, чт
чт423:00+7всв3676100 0.1 1025238
02:00+7всв237691 0.0 102597
05:00+6св127390 0.0 102435
08:00+7св116595 0.0 102565
11:00+11с124676 0.0 1022584
14:00+14ссв2238100 0.0 1018752
17:00+14сз2439100 0.0 1019482
20:00+12зюз1248100 0.1 102267
5 марта, пт
пт523:00+11всв3559100 0.2 1023218
02:00+9в3572100 0.3 1023235
05:00+9ю3673100 0.8 1024481
08:00+9зюз4963100 0.2 1027977
11:00+11з3543100 0.2 10261363
14:00+14всв1232100 0.0 10251650
17:00+13всв444495 0.0 10251253
20:00+11св355474 0.0 1028299
6 марта, сб
сб623:00+9св125737 0.0 102881
02:00+8всв24550 0.0 1026110
05:00+7всв235046 0.0 1023105
08:00+7в2341100 0.0 1021145
11:00+12св242697 0.0 1013519
14:00+15з2222100 0.0 1010668
17:00+15ююз1122100 0.0 1011673
20:00+13зсз2229100 0.0 101351
7 марта, вс
вс723:00+11юз1237100 0.0 101655
02:00+9всв3553100 0.1 1015249
05:00+8зюз1157100 0.1 101630
08:00+8зюз3566100 0.0 1017362
11:00+11зюз2455100 0.0 1016848
14:00+14з2344100 0.0 10151450
17:00+13зюз224298 0.0 10161553
20:00+12зсз234942 0.0 1019164